Wind_Speed
9 10 11 11 11 11 12 11 8 6 4 6 6 6 10 11 12 10 6 8 10 11 13 15 18 18 19 19 18 17 17 18 19 19 20 19 18 17 17 17 17 18 18 17 17 19 20 22 23 21 20 20 18 17 16 15 14 13 12 12 13 14 14 15 15 15 15 15 16 17 18 18 19 19 20 21 22 25 26 27 28 30 31 31 33 35
10 11 13 12 11 8 8 9 9 8 8 8 10 12 13 14 15 10 6 7 7 12 17 16 19 21 20 19 19 18 18 20 21 21 21 20 20 20 20 20 19 19 19 17 18 19 21 23 24 22 21 21 18 17 16 15 14 13 13 13 13 14 14 15 15 15 15 16 16 17 18 19 20 21 21 22 22 23 25 26 27 29 30 30 30 32
11 14 11 9 14 12 6 8 9 9 9 10 12 13 13 13 12 10 10 11 11 12 15 16 19 21 20 20 20 20 20 21 21 22 22 21 22 22 21 21 20 19 19 18 18 22 23 23 24 24 23 21 18 17 16 14 14 13 13 13 13 13 14 14 15 15 14 15 16 17 18 19 20 21 22 23 23 23 24 25 26 27 28 28 30 31
10 11 9 8 15 14 8 9 8 8 10 10 11 13 13 10 10 11 10 9 10 10 12 14 17 19 19 20 22 23 24 23 23 23 23 22 22 22 21 19 18 19 19 19 20 24 25 24 25 25 23 20 19 18 15 14 14 14 14 13 12 12 13 13 13 12 12 12 13 15 16 18 19 20 21 23 24 24 25 25 26 26 26 27 29 31
9 6 7 8 10 9 8 9 9 10 11 12 13 13 12 9 8 10 5 3 8 12 12 11 14 20 22 22 22 22 24 25 25 24 24 24 23 23 23 21 20 18 17 18 20 23 24 23 25 24 21 20 20 17 15 15 15 14 14 12 11 11 10 10 9 9 9 9 10 11 12 14 16 17 19 20 22 24 25 26 26 25 25 26 28 29
11 9 10 8 6 8 9 10 10 10 11 12 14 13 12 9 7 9 7 7 12 13 12 10 10 14 14 17 19 17 19 22 22 23 24 24 24 23 22 21 21 20 19 19 18 19 20 20 21 21 20 20 19 16 15 15 15 14 13 11 11 10 9 8 7 7 8 9 9 9 10 11 13 14 16 18 20 21 23 24 25 25 25 25 26 28
11 9 11 8 7 10 11 12 12 11 12 12 10 10 10 9 9 10 9 10 12 10 9 10 9 8 6 10 14 14 14 16 17 19 22 23 22 21 20 19 19 19 19 19 18 18 19 19 20 20 21 20 18 16 16 15 14 14 12 12 11 10 8 7 7 7 8 9 9 9 10 10 12 13 15 16 18 19 20 22 23 24 24 24 24 26
12 10 8 9 9 10 12 14 13 13 13 10 6 7 8 9 10 10 10 12 13 9 7 12 12 12 13 12 11 13 13 13 14 15 16 18 19 18 18 17 17 17 18 19 19 19 19 20 22 22 21 19 17 17 17 16 14 13 12 12 12 11 10 8 9 10 10 11 11 11 11 12 12 13 14 16 17 18 19 20 21 22 23 24 24 24
8 11 9 9 11 11 13 12 9 12 13 8 5 7 8 9 10 11 12 13 13 11 12 15 13 11 14 12 9 11 13 13 14 15 14 15 16 16 17 16 16 17 17 19 19 20 20 21 22 23 21 18 18 18 17 17 15 13 13 12 11 12 11 10 10 11 12 13 14 14 14 14 14 14 15 16 17 19 20 20 20 21 22 23 24 25
3 8 9 9 12 12 12 10 8 11 12 9 7 8 9 9 11 12 13 14 14 13 13 14 13 11 11 11 11 12 13 14 13 14 15 15 15 16 17 16 16 17 18 18 19 20 21 22 23 23 21 19 20 19 18 17 15 14 14 13 12 12 13 11 11 13 14 16 17 17 17 17 17 17 17 17 17 18 19 21 21 22 22 22 24 25
8 9 10 11 13 12 9 9 11 11 11 11 9 9 11 11 12 13 13 14 13 12 15 17 16 13 9 9 11 12 12 11 10 12 13 15 15 15 16 16 16 17 17 18 18 19 20 22 24 23 21 21 21 18 17 17 16 15 14 14 13 13 14 14 14 16 17 18 19 20 19 19 19 19 19 19 18 18 17 19 21 22 23 23 24 25
12 12 12 12 13 12 10 10 13 13 12 12 10 10 12 12 13 13 14 14 10 9 15 18 16 15 12 10 10 7 8 9 9 10 12 15 16 15 16 16 16 17 17 18 18 19 20 22 24 25 23 22 21 18 17 17 16 16 15 14 14 15 16 17 17 19 20 21 22 22 22 22 21 21 21 20 20 19 18 17 18 20 22 24 24 25
14 15 13 12 13 13 12 12 13 13 13 13 13 14 13 11 11 11 11 11 10 14 17 15 12 14 15 15 12 7 8 11 11 10 11 14 16 16 16 16 17 17 18 18 18 20 21 22 25 26 23 22 21 18 17 18 17 17 16 15 16 17 19 20 20 21 23 23 23 23 23 23 23 23 22 22 21 21 20 18 17 17 19 21 23 25
12 14 14 14 14 14 14 15 14 13 13 15 16 16 14 10 8 8 9 9 11 14 14 11 11 13 15 15 15 14 13 12 13 12 12 15 16 16 16 16 17 18 19 19 20 21 22 24 26 25 23 24 23 19 19 20 19 18 17 17 18 19 21 22 23 23 24 25 24 24 25 25 25 25 24 23 22 22 21 20 19 18 18 19 20 22
12 11 12 14 14 14 16 18 16 13 14 17 18 17 18 15 11 10 9 9 10 9 5 6 8 10 12 10 9 12 14 14 14 15 15 16 17 17 17 17 17 18 19 20 21 22 23 25 26 25 23 24 24 22 21 22 21 19 18 18 19 22 24 25 24 24 25 25 25 25 27 27 27 27 26 25 23 22 22 21 21 20 20 20 20 21
14 14 10 11 12 11 14 16 16 16 17 16 16 19 22 19 16 15 15 16 17 13 7 10 12 11 14 13 10 11 13 15 16 17 18 18 17 17 18 18 18 18 19 20 21 22 23 25 26 25 24 24 25 24 22 22 22 20 19 21 22 24 26 26 25 24 25 25 26 26 28 29 29 28 26 25 24 23 22 22 21 22 22 22 23 23
14 15 9 8 11 10 12 14 14 16 17 13 14 19 21 19 18 18 18 19 18 13 13 17 18 17 18 18 19 19 18 18 18 18 19 19 19 19 18 18 18 19 19 21 22 23 23 23 25 26 24 24 25 24 23 22 22 20 20 22 23 25 27 26 25 25 26 26 26 27 28 28 28 27 26 25 24 23 23 23 23 23 24 24 25 25
14 16 13 11 14 14 13 15 16 17 18 17 18 18 16 17 18 17 15 13 13 11 12 18 21 21 19 18 19 21 22 21 20 19 20 20 20 20 19 17 17 17 19 21 22 23 23 24 25 25 24 24 23 23 24 22 21 20 20 22 23 24 26 26 26 26 26 27 27 27 28 28 27 26 26 25 24 24 24 24 25 25 26 27 27 28
12 16 18 16 18 18 14 15 19 20 21 23 23 20 17 17 17 18 14 11 11 9 9 17 21 22 23 21 18 19 20 19 20 21 20 20 21 20 19 17 16 16 18 20 21 22 23 24 24 23 23 22 19 22 24 21 19 19 20 22 23 24 26 27 27 26 27 27 27 28 27 27 27 26 26 25 25 25 26 26 27 28 28 29 29 30
10 14 17 15 15 16 15 16 20 21 20 20 21 21 21 21 20 20 18 14 13 9 9 14 17 19 24 24 20 21 21 19 19 21 21 22 22 21 19 17 16 16 18 19 20 21 22 23 23 22 22 20 20 25 25 20 18 19 21 25 26 26 27 28 27 27 27 27 27 28 28 28 27 27 27 27 27 27 28 29 29 30 31 31 31 32
12 14 18 18 15 16 18 18 19 20 18 17 19 20 20 21 21 21 20 21 20 12 9 10 11 18 23 20 17 19 20 20 19 19 21 22 22 22 20 18 17 16 17 18 19 20 21 22 22 21 22 20 22 28 27 20 20 21 23 26 27 28 29 28 28 28 28 28 28 28 29 29 28 28 29 29 29 29 29 30 31 32 33 34 34 34
13 13 18 20 18 19 22 20 19 21 19 18 19 20 18 18 19 16 15 21 23 16 14 12 11 19 24 18 17 18 17 18 19 19 20 20 21 22 21 20 19 18 18 19 19 20 21 21 22 22 22 22 25 29 26 22 22 22 24 26 28 29 30 29 29 29 29 29 29 29 30 29 29 29 30 30 31 31 31 32 33 34 35 36 36 36
16 14 17 22 22 23 24 23 24 24 23 23 23 23 22 20 20 19 15 18 22 20 22 20 15 23 28 21 20 21 18 19 20 19 19 18 19 22 21 20 20 19 19 20 21 21 22 22 23 22 21 24 30 32 30 27 25 24 26 28 28 29 31 31 30 30 30 30 30 30 30 30 30 31 31 32 32 32 32 33 34 35 36 38 38 38
17 14 16 22 23 24 25 25 26 26 25 27 27 26 26 25 24 23 20 20 20 20 22 18 13 23 29 21 19 20 18 19 19 20 22 22 21 22 22 21 21 22 22 22 22 23 23 23 23 22 21 25 32 34 32 30 28 28 30 30 30 31 32 32 32 31 31 31 31 31 31 31 32 32 33 32 33 33 33 34 35 36 37 39 39 40
13 10 13 17 16 16 17 17 19 21 21 22 20 18 19 20 20 20 20 20 19 22 24 18 14 22 25 19 19 19 17 18 20 21 23 24 24 24 24 25 24 24 24 24 24 24 24 24 23 22 22 24 27 28 29 29 28 29 30 30 31 32 33 33 33 32 32 32 31 31 31 32 33 33 33 33 33 34 34 35 36 37 38 39 40 41
15 13 14 14 12 11 11 11 11 13 13 14 15 15 16 17 19 20 21 19 19 24 26 21 20 26 28 25 25 25 23 23 23 22 23 24 24 25 26 27 28 27 27 27 26 26 25 25 25 23 23 23 21 21 26 29 27 28 30 31 32 33 33 34 34 33 32 32 32 32 32 33 33 33 34 34 34 35 35 36 37 38 40 41 41 42
16 17 18 18 20 22 22 21 18 17 18 19 20 22 22 22 23 24 24 23 24 25 26 25 25 28 30 30 30 30 29 29 29 28 29 30 30 28 25 24 26 28 29 29 28 28 28 27 26 25 24 23 20 23 30 33 31 30 31 31 32 33 34 34 33 32 32 32 33 33 34 34 33 34 34 34 36 37 37 38 39 40 41 42 42 42
17 19 20 21 26 30 30 30 27 24 24 25 26 28 28 28 29 30 29 29 27 25 26 29 28 27 30 34 36 36 34 33 34 33 32 33 34 34 30 25 24 25 27 29 30 29 29 28 27 27 25 23 23 27 32 34 33 33 33 33 33 34 34 34 33 32 32 33 33 33 34 34 34 34 35 36 37 39 39 40 41 42 43 43 43 42
16 20 20 21 26 29 30 30 28 26 26 27 29 31 32 32 31 32 32 32 30 28 29 32 34 35 38 42 45 45 42 39 37 35 34 34 35 37 36 33 31 26 24 27 29 30 30 28 27 27 25 24 27 30 31 31 33 35 35 34 34 34 34 33 32 32 33 33 33 33 33 34 35 35 37 38 39 40 41 42 43 43 43 43 42 42
17 21 20 20 25 29 29 28 27 27 27 29 31 34 36 35 33 33 35 34 33 33 33 34 37 41 44 46 47 48 44 40 37 37 36 35 36 38 38 37 37 33 27 26 27 29 30 29 28 27 25 26 31 31 29 31 34 36 36 35 34 34 33 33 32 32 32 32 32 33 33 34 36 37 38 39 40 41 42 42 43 43 43 42 42 42
18 20 18 18 24 29 29 26 25 26 28 29 33 37 36 34 32 33 34 33 33 34 35 36 38 43 46 45 45 46 42 38 36 36 37 37 36 37 36 35 38 39 35 30 28 28 30 31 30 26 26 31 32 31 30 33 35 36 36 34 33 33 33 32 32 31 31 31 32 33 33 34 36 37 38 39 40 41 42 42 42 42 41 41 41 41
19 20 20 20 24 31 29 23 23 26 27 30 38 41 36 33 33 34 34 34 34 34 36 36 36 40 43 41 39 39 38 36 36 35 36 36 36 37 37 37 39 42 42 40 37 32 31 32 29 25 29 32 31 29 32 34 35 36 37 34 32 33 33 33 32 30 30 31 32 33 33 34 35 36 38 39 40 40 41 42 42 42 41 41 40 39
20 22 23 20 23 31 29 22 23 23 21 29 39 37 31 32 34 33 34 35 34 33 34 34 34 36 37 35 33 34 36 36 36 34 34 36 37 37 37 39 41 41 41 44 45 38 32 29 26 28 31 30 28 28 31 33 33 34 36 34 32 32 33 32 30 30 31 32 32 32 33 33 34 36 37 39 40 40 41 42 42 42 41 39 38 37
21 22 24 22 24 30 28 23 22 19 19 29 35 28 24 27 29 29 30 30 29 29 31 32 33 33 33 33 33 34 37 37 37 36 36 37 38 39 36 36 40 39 36 40 43 38 32 26 25 29 31 28 27 29 30 31 33 34 34 33 32 32 32 31 30 31 32 32 31 31 32 33 34 36 38 39 40 40 41 41 41 40 39 37 35 35
24 25 25 25 25 28 28 24 18 16 24 32 31 24 23 25 25 27 29 27 27 28 29 31 32 32 32 34 34 35 36 36 37 39 38 37 37 38 37 34 37 40 40 41 40 35 30 26 27 30 32 30 29 30 30 32 34 33 33 32 32 31 30 30 31 32 32 32 31 31 32 33 34 36 37 39 40 41 41 42 40 38 35 34 34 35
28 27 27 28 27 26 26 23 18 20 27 30 27 25 25 24 24 26 27 28 29 28 27 29 30 29 28 28 31 35 36 36 39 41 42 40 36 38 39 32 28 34 40 39 33 30 30 31 30 31 32 29 29 30 30 31 32 32 32 31 31 30 30 30 31 32 33 32 31 31 32 33 34 36 38 40 41 41 42 41 39 36 34 34 34 35
30 30 30 30 28 27 27 28 27 28 29 29 29 28 26 25 25 26 27 28 28 24 23 26 25 23 25 28 31 35 36 37 40 41 40 39 36 38 40 31 24 29 32 28 27 32 35 33 31 31 29 28 28 29 29 30 30 29 29 29 29 30 31 31 30 31 33 33 31 31 32 33 35 37 39 42 42 42 42 40 37 34 33 34 34 35
27 31 32 30 29 29 28 25 22 20 21 23 22 20 19 21 22 21 22 25 27 24 22 25 26 25 26 29 32 33 31 32 36 37 34 33 32 34 37 34 30 30 26 26 31 35 33 30 29 28 27 26 27 27 27 28 27 25 27 28 29 30 30 30 31 31 32 31 31 32 33 33 36 38 40 42 43 43 42 38 35 34 33 34 35 35
26 29 29 29 30 30 28 23 17 16 20 21 16 14 16 17 16 16 15 17 21 20 16 18 22 22 23 26 28 29 28 30 33 34 32 29 28 30 34 34 30 27 28 31 33 31 27 26 26 26 25 25 26 25 24 26 26 25 26 27 27 28 28 29 31 31 30 30 32 33 33 34 37 39 40 42 43 43 40 37 35 34 33 35 35 36
25 26 27 29 30 29 27 25 22 23 26 23 17 18 21 18 13 11 11 12 14 13 11 14 18 19 23 28 28 28 28 31 36 37 35 31 29 29 30 29 27 28 29 28 28 26 24 24 22 22 24 24 24 23 22 24 26 25 26 26 26 27 28 30 31 30 29 31 32 33 34 36 38 40 41 42 43 42 39 36 35 34 34 35 36 36
22 23 25 28 29 28 27 26 24 25 27 23 19 20 23 21 16 15 15 16 17 15 15 19 22 25 28 31 31 31 31 32 36 38 36 35 33 29 27 30 28 25 23 23 25 24 21 22 21 22 24 23 22 22 22 24 26 25 24 25 25 26 29 30 30 29 30 32 32 33 35 37 39 40 42 42 41 39 37 35 34 34 35 35 36 37
21 22 24 26 26 26 26 26 24 24 23 22 19 17 18 18 17 19 21 22 23 21 20 23 27 29 30 30 30 32 33 32 33 33 32 33 32 25 26 29 26 24 24 25 24 19 17 20 22 21 21 20 20 21 22 24 24 22 22 23 24 26 29 30 28 29 31 31 32 34 36 37 39 41 41 39 37 36 35 34 33 34 35 35 36 37
22 21 23 25 23 22 24 23 19 16 14 14 15 15 15 17 19 23 27 29 29 27 24 25 28 28 29 29 29 30 30 29 30 30 29 31 30 24 25 29 29 25 20 17 16 15 16 19 20 18 18 19 19 20 21 22 20 19 21 23 23 25 29 29 28 29 30 30 33 35 36 38 40 40 38 35 33 33 33 32 32 33 34 35 36 37
23 23 25 25 21 19 22 21 17 14 15 17 19 21 22 24 26 30 33 33 31 28 26 26 25 25 26 28 28 29 28 27 26 25 26 28 25 23 24 25 23 17 11 11 14 15 15 16 17 18 18 18 18 20 20 19 18 18 18 18 20 26 29 28 27 29 29 30 33 34 36 38 38 35 32 31 30 31 32 31 31 32 32 34 36 37
22 21 22 24 22 20 22 24 24 23 24 25 25 27 28 29 30 31 30 29 29 28 28 26 24 24 25 26 27 29 29 27 23 20 21 21 17 17 17 17 15 11 12 14 17 15 13 14 17 17 17 17 17 18 19 18 17 17 14 11 16 24 27 24 25 27 28 30 31 33 35 34 32 28 28 29 29 30 31 31 31 31 32 33 34 36
23 22 21 24 26 25 25 27 29 28 27 25 24 25 27 29 30 28 28 29 29 26 26 26 25 26 26 26 27 28 28 24 19 16 20 18 11 10 9 10 12 13 14 15 15 13 13 15 15 15 17 18 17 16 18 17 14 12 11 10 13 18 20 21 23 26 27 28 30 32 31 28 25 25 27 27 28 29 30 31 32 32 32 32 33 35
23 23 26 28 30 29 26 25 23 22 23 24 22 23 26 29 30 28 29 31 28 24 24 25 25 26 25 24 26 27 25 21 15 14 19 18 11 10 10 10 11 12 14 14 13 13 13 14 14 14 17 17 16 16 17 16 13 11 11 12 13 13 16 20 23 26 27 27 29 29 26 23 22 24 25 26 27 28 29 30 31 32 33 33 33 35
23 23 24 25 27 28 27 28 28 26 27 28 25 26 28 29 28 27 28 28 24 22 25 26 24 25 25 24 27 27 23 19 15 15 18 16 11 10 11 10 8 9 12 12 11 12 13 12 10 10 11 11 12 12 13 14 12 11 11 13 11 10 14 19 22 24 25 26 27 24 21 20 22 24 25 26 27 28 28 29 30 31 33 34 34 35
25 27 26 24 25 28 30 32 30 28 28 26 22 22 25 24 23 24 26 27 24 23 25 24 24 26 26 25 26 26 22 19 18 19 16 11 9 9 9 8 7 7 9 12 11 11 13 11 8 7 8 8 8 8 11 12 10 11 13 13 8 8 14 19 21 22 22 24 23 20 19 21 23 24 25 26 28 29 29 29 28 28 30 33 34 35
25 28 28 25 25 27 29 28 24 21 22 22 19 21 25 26 26 27 27 28 27 24 23 23 23 24 25 26 26 25 22 18 16 17 15 13 12 10 8 7 6 6 6 8 8 8 9 9 7 6 7 7 7 7 11 10 9 11 11 8 5 8 16 19 19 20 21 21 20 18 19 21 22 23 24 26 28 30 30 29 29 29 29 31 33 34
25 26 27 26 27 27 26 24 21 20 22 22 20 22 25 28 29 29 28 28 27 24 22 23 22 22 24 24 19 14 14 15 16 15 13 13 12 9 6 6 5 5 5 5 5 4 5 5 6 5 6 6 6 6 10 10 9 10 10 6 7 12 16 16 17 18 19 19 19 19 19 21 23 24 26 27 29 30 30 30 29 29 29 29 31 33
Wind_Direction
213 216 221 227 232 220 211 220 244 281 293 278 273 255 255 258 255 256 232 205 217 232 245 250 248 246 243 238 235 231 224 220 223 224 224 226 229 231 235 237 240 241 240 241 240 237 233 241 252 253 253 257 261 265 269 273 271 262 257 252 251 253 252 252 254 254 257 260 262 264 266 266 266 262 258 253 250 252 253 252 251 251 252 251 251 251
219 226 230 229 228 205 185 214 244 265 267 259 258 258 258 256 254 253 226 214 231 250 257 256 251 251 246 240 237 233 230 228 228 226 228 233 236 238 239 242 246 246 246 243 240 236 226 233 249 253 250 254 258 262 265 266 260 255 252 247 246 250 252 252 254 253 253 256 259 262 265 268 270 271 270 266 260 256 255 255 254 254 254 254 254 253
226 234 232 217 220 217 214 241 247 252 255 251 248 251 256 256 247 233 229 249 262 260 260 258 254 252 246 242 240 235 235 236 235 234 235 239 241 242 244 245 247 245 244 243 236 229 226 233 247 252 250 251 254 257 258 256 255 252 247 246 243 246 252 254 256 257 255 255 256 259 263 265 268 271 273 273 272 268 263 260 257 256 257 257 256 255
234 229 205 201 224 230 240 246 237 238 242 239 242 247 250 253 254 242 227 235 250 255 262 262 258 256 249 243 242 239 238 239 239 241 244 244 242 240 240 240 243 246 243 236 229 230 235 239 242 247 249 248 249 250 249 249 252 248 244 245 242 243 252 255 259 264 264 262 261 262 264 266 269 272 275 277 277 276 274 270 265 261 260 258 256 255
247 226 200 214 227 227 231 229 227 237 240 237 238 245 255 261 260 257 247 223 257 264 257 253 258 256 248 242 242 239 237 238 240 242 244 244 242 240 239 240 241 243 236 225 226 235 240 240 240 245 246 242 243 245 243 245 246 241 238 240 238 241 250 254 260 268 274 276 274 271 269 270 272 274 276 279 279 279 279 277 274 270 265 261 259 256
242 237 237 239 227 224 229 229 228 236 247 251 241 233 250 272 262 255 267 261 263 259 232 223 256 258 243 233 235 235 231 232 237 240 241 241 242 243 244 243 240 234 225 216 220 231 237 237 238 238 236 236 239 242 243 242 237 231 231 233 234 240 248 255 261 272 283 286 289 289 284 281 281 280 280 281 281 282 281 281 280 277 272 268 264 261
244 242 240 232 229 229 228 234 234 234 247 256 243 222 232 258 257 249 250 245 256 263 217 212 258 280 262 232 226 221 219 225 233 238 238 236 238 240 239 237 234 227 221 215 213 219 226 231 232 231 233 237 238 241 243 238 229 223 225 229 235 244 249 257 266 274 285 287 289 294 293 292 289 287 285 285 286 285 284 284 284 282 279 274 270 266
235 241 238 218 227 232 229 237 235 226 237 245 230 221 232 245 245 240 239 240 254 278 248 227 248 271 270 259 233 211 211 222 230 234 233 229 230 229 227 227 225 221 218 218 214 212 219 228 233 235 238 240 240 242 240 232 225 223 224 229 238 249 253 260 270 275 282 285 286 289 291 292 291 289 287 286 288 288 286 285 285 285 284 280 276 271
216 229 231 219 227 230 228 239 232 216 229 251 240 228 239 243 237 234 238 244 252 266 261 241 231 249 261 251 219 204 221 233 230 228 226 221 221 221 220 220 220 218 217 220 219 214 217 225 234 240 242 241 241 243 238 229 226 225 226 230 239 251 257 264 274 278 281 285 287 288 290 292 293 292 289 285 286 288 289 288 286 286 285 283 281 276
233 221 218 218 224 227 228 234 224 212 226 247 246 239 244 240 234 236 240 249 255 252 256 250 225 228 259 247 217 210 226 236 230 227 224 219 219 218 218 218 217 217 217 217 220 219 218 223 233 243 244 242 242 242 237 231 230 231 233 237 242 253 262 268 279 284 284 286 288 288 290 292 293 295 293 289 286 285 286 287 287 286 285 284 282 279
247 235 228 222 221 227 234 228 219 218 230 240 240 242 243 234 231 239 241 249 261 249 245 249 229 223 254 260 241 225 214 218 224 227 223 217 217 215 216 217 214 215 216 215 217 218 219 224 234 241 239 241 244 241 236 233 234 237 240 243 247 256 266 272 280 286 287 288 288 288 288 290 292 294 295 294 290 287 284 284 285 285 285 285 283 281
235 237 233 226 223 226 232 231 227 226 232 236 237 240 240 233 231 240 241 243 256 250 246 248 230 220 239 252 259 248 209 207 223 233 227 217 213 213 215 216 216 216 217 217 215 216 218 221 230 237 238 244 246 239 236 237 238 241 245 250 255 261 269 275 281 285 287 288 287 287 288 288 290 292 294 295 293 290 286 283 283 284 284 284 284 283
224 232 232 229 222 217 223 230 229 223 225 231 233 237 242 241 236 237 240 239 239 241 247 247 222 216 237 254 266 258 220 221 230 234 228 216 213 216 217 219 220 219 218 219 218 220 222 221 230 240 241 245 247 240 240 241 240 246 251 256 263 266 271 276 281 284 285 285 285 286 287 287 289 290 293 295 293 291 288 285 283 284 284 285 285 284
231 234 226 224 220 215 222 229 228 221 223 230 232 233 238 249 254 247 247 247 244 248 248 239 225 230 245 258 261 249 236 233 231 228 222 215 213 216 220 223 225 224 222 221 220 224 226 225 234 244 243 243 247 244 244 244 243 250 258 262 266 269 272 276 279 281 281 282 283 284 284 285 286 288 291 292 291 288 286 286 285 284 284 285 285 285
261 255 227 220 224 223 224 229 238 245 239 234 236 240 245 250 257 263 272 275 277 293 286 214 218 236 243 254 257 244 237 232 230 227 219 215 216 219 222 224 225 227 226 224 222 224 226 226 233 243 244 241 243 246 248 247 245 250 259 264 265 269 272 276 277 279 279 280 281 282 282 282 283 285 288 289 287 284 283 284 286 286 286 286 284 283
264 268 248 223 223 224 227 231 241 252 253 245 240 244 247 250 256 266 277 283 289 302 284 235 230 235 244 257 261 243 234 231 230 226 219 218 219 220 222 223 223 225 226 225 223 221 223 226 230 237 243 239 239 246 251 251 249 250 257 263 266 269 273 275 277 277 278 279 280 280 280 280 281 283 285 285 284 282 280 282 285 287 289 289 288 287
263 268 257 219 224 230 238 246 242 242 253 259 248 245 250 257 264 267 269 270 272 276 267 255 250 247 252 263 263 250 240 240 237 228 223 221 220 219 221 223 224 225 226 226 224 222 223 224 226 232 240 240 239 245 250 251 247 248 258 265 266 268 271 274 276 277 278 280 280 279 278 279 281 282 283 283 282 281 280 281 284 288 290 290 291 291
269 273 261 238 246 252 251 255 249 243 249 257 256 258 266 268 263 262 267 267 260 260 263 258 253 251 254 262 264 252 243 245 245 237 230 226 223 221 221 222 227 229 228 227 225 223 221 221 223 227 235 241 243 245 248 248 243 247 262 269 268 268 270 272 275 276 278 280 279 278 278 279 280 281 281 282 282 281 281 282 285 288 289 289 291 292
266 274 268 253 255 261 255 251 252 250 248 252 259 266 270 267 259 254 257 261 261 265 264 257 255 254 254 258 261 256 252 249 243 239 238 234 229 225 223 225 228 229 228 225 223 222 220 219 221 223 228 236 239 239 243 247 245 253 267 272 272 272 271 273 275 277 279 279 279 278 278 279 280 280 280 281 282 283 283 284 286 287 287 288 290 291
264 272 273 263 261 263 253 246 252 257 252 250 256 260 259 259 262 262 259 256 259 265 266 264 264 259 257 260 258 258 264 261 246 240 241 240 237 232 229 230 229 228 227 221 219 221 219 219 220 222 227 229 232 239 246 252 252 257 265 270 274 275 273 275 277 278 279 279 279 279 278 279 279 279 280 281 282 284 285 285 286 287 286 287 288 289
263 265 269 270 269 262 250 243 251 262 264 256 254 256 256 253 255 262 262 256 255 260 267 268 268 264 264 266 262 260 267 268 256 247 244 244 241 236 234 234 231 229 225 218 217 218 219 222 221 221 226 227 232 242 250 254 255 258 263 268 272 274 273 276 278 279 280 280 279 278 277 277 277 278 279 281 282 284 285 285 285 286 286 286 287 287
257 257 267 273 269 260 253 251 256 264 267 268 267 265 263 259 260 263 260 256 256 258 264 266 271 270 268 270 270 267 267 266 262 260 256 249 241 237 237 235 230 226 224 219 217 215 218 223 224 224 229 229 231 240 248 255 260 261 263 266 269 270 272 276 278 280 281 281 281 279 278 278 277 278 279 281 284 285 285 285 285 286 286 287 288 288
265 261 266 270 267 264 263 262 263 264 266 268 268 265 264 266 267 266 267 269 268 267 267 268 270 269 268 271 275 273 270 266 263 264 263 258 250 242 238 236 232 226 223 221 221 221 220 221 224 227 231 231 233 241 250 257 259 259 260 265 267 269 272 276 278 281 281 282 282 280 279 279 278 279 281 283 285 286 287 287 287 288 288 289 289 290
271 266 266 271 272 270 268 265 262 261 261 261 260 259 260 261 264 270 276 280 277 271 268 267 265 267 271 276 277 276 275 270 267 266 265 267 261 247 239 241 239 232 228 225 223 225 224 223 224 225 227 231 239 248 255 255 252 253 257 263 267 270 272 276 279 281 282 283 283 281 281 280 280 281 283 284 286 286 287 288 288 289 290 291 291 291
272 273 272 277 279 275 270 262 256 254 251 254 262 266 263 262 267 274 279 278 271 264 262 262 263 269 275 280 280 282 286 280 276 273 273 273 264 252 249 248 243 238 236 233 229 226 224 223 222 221 223 231 243 253 256 251 247 252 257 261 266 270 272 275 279 282 283 284 283 283 282 282 282 283 284 285 285 286 287 288 289 290 290 292 292 292
270 271 269 271 271 272 270 262 268 280 275 270 277 281 276 272 270 272 275 273 266 265 265 265 268 273 278 280 280 284 288 283 275 273 278 278 267 259 258 253 246 245 242 237 232 228 224 222 221 221 225 232 239 244 248 250 252 257 261 262 266 269 271 274 278 281 283 284 285 285 284 282 283 283 284 285 285 286 287 288 289 289 290 291 292 292
264 262 258 256 258 263 268 272 282 297 294 283 281 279 275 271 268 271 271 265 265 273 273 268 272 279 281 281 282 284 285 281 275 272 276 277 269 261 259 254 250 249 245 239 233 228 224 221 221 222 226 231 230 230 243 257 265 265 264 265 267 270 271 273 277 280 280 282 283 283 283 283 283 283 284 284 285 286 287 288 289 289 290 291 291 290
259 259 255 253 257 261 266 272 278 283 281 278 277 276 273 269 268 268 266 265 271 278 276 274 278 281 280 280 281 283 283 282 279 277 277 277 270 260 255 253 253 251 244 239 234 228 223 222 223 225 226 229 232 237 249 264 271 270 267 267 268 270 272 274 277 279 279 280 281 281 282 283 283 284 284 285 285 286 287 289 289 290 290 290 289 288
252 258 258 258 261 264 266 271 274 275 275 274 273 272 270 267 266 265 266 268 271 271 272 277 280 280 279 279 280 281 283 283 281 280 278 275 271 263 257 253 252 248 239 238 237 230 225 224 223 225 228 231 238 248 261 268 269 270 269 268 268 270 273 275 276 278 280 280 281 281 281 282 283 284 284 285 286 287 288 289 290 290 290 289 287 286
251 259 263 263 265 267 268 269 272 274 273 272 270 268 266 265 265 266 267 268 269 268 270 273 275 276 278 279 279 281 282 283 283 282 278 273 269 266 263 257 251 242 232 235 238 234 231 228 223 227 231 233 240 254 267 267 265 268 269 268 270 272 273 274 275 277 279 279 280 281 281 282 283 284 285 286 287 288 289 290 290 290 289 287 285 284
253 259 263 266 270 271 269 269 272 272 271 272 269 265 264 266 267 266 265 265 266 267 268 269 270 273 276 277 279 281 281 282 282 280 276 271 266 262 261 258 253 245 241 243 242 235 232 230 227 227 227 232 243 256 263 264 265 267 268 268 271 273 273 274 276 277 277 278 279 281 282 283 284 285 286 287 288 290 291 291 291 290 288 287 285 284
255 261 265 267 269 270 270 271 271 270 272 271 266 263 264 265 264 262 262 262 263 266 268 268 266 270 275 278 279 280 280 279 279 278 276 272 267 262 258 254 252 252 251 252 248 238 233 233 229 221 221 234 249 255 258 263 265 265 268 270 270 272 273 274 276 276 276 277 279 281 283 284 285 286 287 289 291 293 294 294 294 292 290 289 288 287
254 259 263 262 265 269 271 272 272 274 274 264 260 261 264 263 262 263 263 264 263 262 263 263 263 268 274 278 277 278 279 279 278 278 276 272 266 262 259 254 253 254 253 252 249 240 236 235 226 217 223 236 249 252 256 263 263 261 267 270 270 272 273 274 275 275 276 278 280 282 283 284 285 287 289 291 295 297 298 298 298 296 295 293 291 289
254 257 259 259 262 267 271 274 273 270 259 257 261 265 265 264 265 265 264 264 262 261 260 262 267 271 273 274 275 278 279 278 276 274 274 273 266 262 262 256 247 245 247 250 246 237 234 229 215 217 229 237 244 249 253 259 260 262 266 268 269 271 272 274 275 276 278 280 281 283 284 285 287 288 291 295 298 300 302 302 301 300 298 296 293 289
255 256 257 258 259 264 269 270 266 254 252 259 268 271 268 269 269 267 265 264 264 266 268 269 271 273 275 276 276 276 275 272 271 268 266 268 265 262 264 257 241 236 240 242 236 228 224 214 206 221 238 245 250 256 257 257 260 262 265 267 268 269 271 275 277 278 280 281 282 285 286 287 289 291 295 299 301 304 306 306 304 302 299 295 292 289
253 254 256 257 257 261 264 259 254 257 262 268 273 274 272 272 270 269 269 267 267 268 270 273 275 276 278 279 276 275 274 273 274 272 268 268 266 262 262 260 247 240 240 236 226 213 205 202 211 232 247 253 258 262 260 256 256 259 263 265 267 269 272 274 276 279 281 282 285 286 286 288 291 294 297 300 304 307 309 307 304 301 298 294 291 290
249 251 253 255 254 256 259 259 262 267 270 272 272 271 272 270 268 268 269 269 270 269 268 271 272 272 271 273 275 278 281 281 280 278 276 274 271 263 259 258 253 243 233 219 205 199 202 212 229 244 252 256 259 260 258 256 256 258 261 264 268 271 273 274 275 277 280 284 286 286 288 291 294 297 300 302 306 310 310 307 303 299 296 293 290 290
247 247 250 252 253 255 258 262 266 267 267 271 272 271 272 271 268 265 268 274 275 271 267 264 263 267 274 277 279 283 288 290 286 284 284 278 272 263 253 249 252 245 222 198 196 203 213 228 241 249 253 255 257 256 255 258 259 260 261 266 270 271 272 274 274 276 280 284 285 286 289 293 296 298 301 304 308 311 310 305 301 298 295 293 291 291
251 250 251 252 254 255 257 260 262 260 265 274 281 279 277 277 272 266 272 284 280 272 270 264 261 269 281 286 286 284 286 289 288 291 292 282 271 263 250 241 240 229 205 195 202 212 224 234 241 249 254 253 253 253 254 258 262 264 265 267 267 267 269 271 273 278 283 284 284 287 291 294 297 299 301 305 309 310 308 303 298 296 295 293 293 294
257 255 253 252 254 255 257 261 264 266 270 276 280 277 276 279 280 278 282 286 277 273 283 280 274 279 286 289 290 285 283 285 286 289 291 283 275 268 250 230 214 200 194 198 206 214 230 240 243 249 252 251 252 253 255 259 262 264 265 264 265 266 267 270 275 281 283 282 285 290 293 297 299 302 305 309 310 309 305 301 297 296 295 295 295 295
260 257 254 256 256 254 255 259 265 270 272 273 270 267 268 269 269 271 275 277 278 285 296 291 286 288 290 291 291 288 286 286 285 287 288 286 285 273 240 216 199 186 186 201 210 216 232 243 244 246 248 250 251 252 254 257 259 261 263 265 267 267 268 272 278 280 280 282 287 292 296 300 302 306 309 310 308 305 302 300 298 297 297 297 297 295
263 261 258 257 255 254 257 261 267 271 270 268 268 268 267 266 264 264 271 278 283 291 299 293 288 289 290 290 291 291 289 288 288 287 286 286 285 267 230 215 205 188 186 203 217 225 236 243 246 246 247 250 251 251 253 255 258 262 264 266 267 266 269 275 278 278 280 284 290 295 297 300 304 309 311 308 305 303 302 301 301 300 300 300 297 295
266 265 262 259 256 258 262 262 266 274 273 273 286 295 289 281 277 278 283 287 287 289 293 290 286 288 290 290 292 294 293 291 288 286 284 284 278 258 234 223 211 199 199 215 231 238 240 244 251 252 249 251 254 255 256 258 261 263 263 264 263 264 269 274 275 277 282 288 293 296 299 304 309 312 310 307 305 305 305 305 305 304 303 301 298 297
263 257 260 265 264 261 262 261 263 275 283 286 294 298 294 288 287 288 288 288 289 292 296 295 290 288 290 293 294 295 296 296 289 285 287 283 266 237 219 212 207 210 230 242 241 242 242 248 256 258 257 258 259 261 261 262 263 259 255 255 257 261 269 273 273 278 286 291 294 300 306 311 313 311 309 309 310 309 309 309 309 308 306 304 302 301
261 257 262 268 266 260 261 264 265 273 283 286 286 287 287 287 287 286 283 284 290 293 292 293 292 288 288 292 293 293 296 296 289 284 283 271 239 204 194 196 204 227 240 236 241 251 253 252 257 260 262 262 261 261 261 261 255 247 238 234 248 261 270 275 277 282 289 293 299 307 313 313 312 312 314 316 314 313 314 314 314 313 310 308 306 306
268 267 267 267 267 266 265 265 269 275 282 283 282 283 285 285 286 287 287 288 290 290 288 289 292 292 292 292 290 291 294 289 281 278 273 256 211 171 179 194 205 223 230 235 246 254 253 253 257 259 260 260 258 255 257 254 238 220 212 218 240 261 274 281 284 287 290 296 306 314 315 314 315 319 321 321 321 321 321 320 319 317 315 314 313 313
271 267 264 265 268 267 266 268 271 275 278 281 284 285 283 281 282 286 290 290 289 289 294 297 298 296 294 292 290 291 289 278 267 262 255 238 195 164 185 199 206 221 233 244 251 252 253 256 258 257 255 253 250 247 249 247 226 200 205 223 236 262 281 286 288 290 293 304 314 317 316 317 323 326 327 329 330 329 327 325 324 322 321 320 319 318
277 273 270 271 270 266 269 276 279 280 283 285 285 280 275 275 277 279 284 290 293 295 297 300 301 299 296 294 292 289 280 267 252 237 227 216 191 175 188 198 203 217 237 254 258 257 257 251 244 243 239 238 243 234 226 229 216 198 216 234 241 269 287 287 287 291 302 314 319 317 318 325 330 332 334 337 337 336 333 332 330 327 325 323 323 324
278 275 274 275 275 272 274 278 279 282 284 282 277 274 274 277 284 285 286 292 299 299 295 295 299 300 298 296 293 287 278 265 244 223 207 191 182 185 189 194 200 218 248 260 255 253 255 245 229 214 203 220 241 215 197 207 205 198 222 241 247 274 286 285 288 299 312 319 320 323 331 335 336 336 339 341 343 343 340 337 334 332 330 329 329 330
275 272 271 271 271 272 276 278 276 275 280 282 282 284 286 288 291 292 293 295 297 295 294 295 297 298 299 300 296 286 273 253 222 202 188 174 174 183 187 190 198 215 239 246 241 243 246 240 231 208 191 215 243 206 185 195 195 193 209 221 230 271 283 288 297 312 321 323 328 338 344 345 346 346 347 347 349 348 345 342 340 339 337 335 334 334
274 272 273 270 267 269 276 280 274 270 279 285 283 282 288 291 292 293 294 294 292 292 295 297 296 300 304 302 293 270 235 204 179 170 173 175 175 179 182 186 196 207 216 217 212 214 222 229 232 209 184 198 218 192 180 187 189 189 198 216 256 276 286 296 309 318 322 327 337 349 357 359 359 357 356 354 352 351 349 347 345 344 342 341 340 339
Height
3118 3118 3117 3117 3116 3115 3117 3117 3116 3115 3115 3115 3115 3115 3116 3116 3115 3115 3114 3113 3115 3117 3117 3117 3117 3116 3116 3117 3117 3116 3115 3116 3118 3119 3120 3120 3121 3121 3122 3122 3122 3123 3123 3124 3123 3122 3120 3118 3118 3119 3119 3120 3120 3121 3121 3121 3122 3122 3123 3123 3123 3123 3124 3124 3125 3125 3125 3125 3125 3125 3125 3125 3125 3126 3126 3127 3128 3128 3128 3129 3130 3130 3131 3132 3133 3134
3116 3116 3115 3114 3113 3112 3114 3115 3115 3116 3116 3116 3117 3117 3116 3115 3114 3114 3113 3112 3114 3115 3115 3115 3114 3114 3114 3114 3115 3115 3114 3113 3114 3115 3117 3118 3118 3118 3119 3119 3120 3120 3121 3121 3122 3121 3119 3117 3116 3117 3118 3118 3119 3120 3120 3120 3120 3121 3121 3122 3122 3122 3122 3123 3123 3124 3124 3124 3124 3124 3124 3124 3123 3123 3124 3124 3125 3126 3126 3127 3127 3128 3128 3129 3130 3131
3115 3114 3113 3112 3111 3112 3114 3115 3116 3116 3116 3116 3117 3116 3115 3113 3112 3112 3111 3112 3114 3114 3113 3113 3112 3111 3111 3111 3112 3112 3112 3112 3111 3112 3113 3114 3115 3116 3116 3117 3117 3118 3118 3119 3120 3118 3117 3116 3115 3115 3116 3117 3118 3118 3118 3119 3119 3119 3120 3120 3120 3120 3120 3121 3121 3122 3122 3123 3123 3123 3122 3122 3122 3122 3121 3122 3122 3123 3123 3124 3124 3125 3126 3127 3127 3127
3112 3111 3111 3110 3110 3113 3115 3115 3116 3116 3115 3115 3115 3114 3112 3112 3111 3110 3110 3111 3112 3112 3111 3111 3110 3108 3108 3108 3108 3109 3109 3110 3110 3109 3110 3111 3112 3113 3114 3114 3115 3115 3115 3117 3116 3114 3114 3114 3113 3113 3115 3116 3116 3117 3117 3117 3118 3118 3118 3118 3119 3119 3119 3119 3120 3120 3120 3121 3121 3121 3121 3121 3120 3120 3120 3120 3120 3120 3120 3120 3121 3123 3124 3124 3124 3124
3111 3108 3109 3110 3111 3113 3114 3114 3115 3115 3114 3113 3113 3112 3111 3111 3112 3111 3110 3110 3111 3110 3109 3109 3108 3105 3103 3104 3104 3105 3106 3106 3107 3107 3108 3108 3108 3109 3110 3111 3111 3112 3112 3113 3113 3111 3111 3112 3112 3112 3113 3114 3114 3115 3116 3116 3116 3117 3117 3117 3117 3117 3118 3118 3118 3118 3118 3119 3119 3119 3119 3119 3119 3119 3118 3118 3117 3117 3117 3117 3118 3119 3120 3120 3121 3121
3109 3107 3108 3110 3111 3112 3113 3113 3114 3114 3113 3111 3110 3111 3111 3111 3111 3111 3111 3111 3110 3107 3106 3107 3105 3099 3098 3100 3101 3102 3103 3103 3104 3105 3105 3106 3105 3106 3106 3107 3108 3108 3109 3110 3111 3110 3109 3109 3110 3111 3111 3112 3113 3113 3114 3115 3115 3115 3115 3116 3116 3116 3116 3117 3117 3117 3117 3117 3117 3117 3118 3117 3117 3117 3117 3116 3116 3115 3115 3115 3115 3115 3116 3117 3117 3118
3107 3105 3107 3110 3110 3111 3112 3112 3112 3112 3112 3110 3107 3108 3110 3111 3111 3110 3110 3110 3107 3104 3104 3106 3104 3098 3096 3098 3098 3099 3100 3101 3102 3101 3101 3103 3103 3103 3104 3105 3105 3105 3106 3107 3108 3109 3108 3107 3108 3109 3109 3110 3111 3112 3113 3113 3113 3114 3114 3114 3115 3115 3115 3116 3116 3117 3117 3116 3117 3116 3116 3116 3116 3115 3115 3115 3114 3114 3113 3113 3112 3112 3113 3114 3114 3115
3105 3105 3107 3109 3109 3110 3110 3109 3109 3110 3110 3108 3106 3108 3109 3109 3109 3109 3109 3108 3105 3104 3103 3103 3104 3101 3097 3096 3096 3097 3098 3099 3099 3099 3099 3100 3101 3102 3103 3103 3104 3104 3105 3105 3105 3107 3107 3106 3106 3107 3107 3108 3109 3110 3111 3111 3112 3112 3113 3113 3113 3113 3114 3114 3115 3115 3115 3115 3115 3115 3115 3115 3114 3114 3114 3113 3112 3112 3111 3111 3110 3110 3110 3110 3111 3111
3104 3105 3106 3107 3108 3108 3108 3107 3107 3108 3108 3106 3106 3107 3108 3108 3108 3108 3107 3106 3104 3103 3101 3100 3102 3100 3095 3093 3094 3095 3096 3097 3097 3097 3097 3098 3099 3100 3101 3102 3102 3103 3103 3103 3103 3104 3105 3104 3104 3105 3106 3107 3108 3108 3109 3110 3110 3111 3111 3112 3112 3112 3112 3113 3113 3113 3113 3113 3113 3113 3113 3113 3113 3112 3112 3112 3111 3110 3109 3109 3108 3108 3108 3108 3108 3108
3104 3105 3105 3106 3106 3106 3106 3106 3106 3107 3107 3106 3106 3106 3107 3107 3106 3106 3106 3104 3102 3101 3098 3097 3098 3097 3091 3089 3090 3092 3094 3094 3095 3095 3095 3096 3097 3098 3099 3100 3101 3102 3102 3102 3102 3102 3103 3103 3102 3103 3104 3105 3105 3106 3107 3107 3108 3109 3109 3110 3110 3110 3110 3110 3111 3111 3111 3111 3111 3111 3111 3111 3110 3110 3110 3110 3110 3109 3108 3107 3107 3106 3106 3105 3105 3105
3103 3103 3103 3104 3104 3104 3104 3104 3104 3105 3105 3105 3105 3106 3105 3105 3105 3104 3103 3103 3100 3096 3094 3094 3095 3095 3090 3087 3087 3088 3090 3092 3093 3094 3094 3095 3096 3097 3097 3098 3099 3100 3100 3100 3101 3101 3100 3100 3100 3101 3102 3102 3103 3104 3105 3105 3106 3107 3107 3108 3108 3108 3108 3108 3109 3109 3109 3109 3108 3108 3108 3108 3108 3108 3108 3107 3107 3107 3107 3106 3105 3104 3104 3103 3103 3103
3102 3101 3101 3101 3102 3102 3103 3103 3103 3104 3104 3104 3104 3104 3103 3101 3102 3102 3101 3102 3099 3092 3090 3090 3091 3093 3091 3086 3085 3086 3088 3090 3091 3092 3093 3093 3094 3095 3095 3096 3097 3098 3099 3099 3099 3100 3099 3098 3098 3099 3100 3100 3101 3102 3102 3103 3104 3105 3105 3106 3106 3106 3105 3106 3106 3106 3106 3106 3106 3105 3105 3105 3105 3105 3105 3105 3104 3104 3104 3104 3104 3103 3102 3101 3101 3101
3100 3099 3099 3100 3100 3101 3102 3102 3101 3102 3102 3103 3102 3102 3100 3097 3096 3096 3095 3096 3093 3088 3087 3087 3088 3091 3089 3085 3085 3086 3087 3089 3089 3090 3091 3091 3092 3093 3093 3094 3095 3096 3097 3098 3098 3099 3098 3097 3095 3096 3098 3098 3099 3099 3100 3101 3102 3102 3103 3103 3103 3103 3103 3103 3103 3103 3103 3103 3103 3102 3102 3102 3102 3102 3102 3102 3101 3101 3101 3101 3101 3101 3100 3100 3099 3099
3097 3096 3097 3098 3098 3099 3100 3100 3099 3099 3101 3101 3099 3099 3097 3094 3092 3090 3087 3086 3084 3082 3084 3086 3088 3088 3086 3085 3084 3085 3086 3087 3087 3088 3089 3089 3090 3090 3091 3092 3092 3093 3094 3095 3096 3097 3097 3096 3094 3094 3095 3096 3096 3097 3098 3098 3099 3100 3100 3101 3101 3100 3100 3100 3100 3100 3100 3100 3099 3099 3099 3099 3099 3099 3099 3098 3098 3098 3098 3098 3098 3098 3098 3098 3097 3097
3094 3093 3094 3096 3097 3097 3097 3097 3096 3097 3098 3097 3097 3097 3094 3092 3091 3088 3084 3082 3081 3082 3084 3087 3088 3086 3085 3083 3082 3083 3084 3084 3084 3085 3086 3086 3087 3087 3088 3089 3090 3091 3091 3092 3094 3095 3095 3094 3092 3092 3093 3093 3094 3095 3096 3096 3096 3097 3097 3098 3098 3097 3097 3097 3097 3097 3097 3097 3096 3096 3096 3096 3096 3096 3096 3095 3095 3096 3095 3095 3095 3095 3095 3095 3094 3094
3094 3091 3092 3094 3095 3095 3095 3095 3096 3095 3094 3093 3094 3094 3091 3091 3091 3089 3086 3085 3085 3085 3084 3085 3084 3083 3082 3081 3081 3082 3082 3082 3082 3082 3082 3083 3083 3084 3084 3085 3087 3088 3089 3090 3090 3092 3092 3091 3090 3089 3090 3091 3092 3092 3093 3093 3093 3094 3095 3095 3095 3095 3094 3094 3094 3094 3094 3094 3094 3094 3093 3093 3093 3093 3093 3092 3092 3092 3092 3092 3092 3092 3091 3091 3091 3091
3093 3091 3091 3093 3093 3094 3094 3094 3094 3094 3092 3091 3092 3091 3089 3090 3091 3089 3086 3086 3087 3085 3081 3080 3080 3079 3079 3078 3078 3080 3079 3080 3080 3080 3080 3080 3080 3081 3081 3082 3083 3084 3086 3086 3087 3088 3089 3089 3088 3087 3087 3088 3089 3090 3090 3090 3090 3091 3092 3092 3092 3091 3090 3091 3091 3091 3091 3090 3091 3091 3090 3090 3090 3090 3089 3089 3089 3089 3089 3089 3089 3088 3088 3087 3087 3087
3093 3090 3091 3092 3091 3091 3093 3092 3091 3091 3091 3090 3089 3088 3089 3089 3088 3088 3086 3084 3084 3081 3077 3077 3076 3076 3075 3073 3074 3076 3076 3077 3079 3079 3080 3079 3079 3079 3078 3079 3080 3081 3082 3083 3084 3085 3086 3086 3086 3085 3085 3085 3086 3087 3086 3087 3087 3087 3088 3088 3088 3088 3087 3087 3088 3088 3088 3087 3087 3087 3087 3087 3086 3086 3086 3086 3086 3086 3085 3085 3085 3085 3084 3084 3084 3083
3093 3090 3088 3089 3089 3089 3091 3090 3088 3088 3088 3087 3087 3087 3087 3086 3084 3085 3085 3083 3081 3078 3075 3073 3072 3072 3071 3070 3072 3073 3073 3074 3076 3077 3078 3078 3078 3078 3077 3077 3077 3078 3079 3080 3081 3082 3083 3083 3083 3083 3084 3083 3084 3084 3083 3083 3084 3084 3084 3084 3085 3085 3084 3084 3084 3085 3084 3084 3084 3084 3084 3084 3083 3083 3083 3083 3083 3082 3082 3082 3081 3081 3081 3081 3080 3080
3092 3090 3086 3086 3087 3087 3087 3087 3085 3084 3085 3085 3085 3085 3084 3083 3082 3081 3081 3080 3079 3077 3073 3071 3069 3067 3066 3068 3070 3071 3071 3072 3073 3074 3075 3076 3076 3076 3076 3076 3076 3076 3076 3077 3078 3079 3080 3080 3081 3082 3082 3082 3083 3081 3079 3080 3081 3081 3081 3081 3081 3081 3080 3080 3081 3081 3081 3081 3080 3080 3080 3080 3080 3080 3080 3080 3079 3079 3079 3078 3078 3077 3077 3077 3077 3076
3091 3090 3085 3084 3086 3085 3083 3083 3083 3082 3082 3082 3082 3081 3080 3080 3079 3078 3077 3076 3075 3073 3071 3070 3066 3062 3064 3066 3068 3069 3069 3069 3070 3071 3072 3073 3073 3074 3074 3074 3074 3074 3074 3075 3076 3077 3078 3078 3079 3080 3080 3081 3080 3077 3077 3079 3078 3078 3079 3078 3078 3078 3077 3077 3078 3078 3077 3077 3077 3077 3077 3077 3077 3077 3076 3076 3076 3076 3075 3074 3074 3073 3073 3072 3072 3072
3089 3088 3085 3083 3083 3081 3079 3080 3081 3080 3080 3080 3079 3078 3077 3077 3077 3075 3072 3071 3072 3070 3068 3067 3063 3059 3062 3066 3066 3066 3067 3068 3068 3069 3070 3070 3071 3071 3071 3071 3071 3071 3072 3072 3073 3074 3075 3076 3077 3077 3078 3078 3077 3074 3074 3076 3076 3075 3076 3076 3075 3075 3074 3074 3075 3074 3074 3074 3074 3074 3074 3074 3074 3073 3073 3072 3072 3072 3071 3071 3070 3069 3068 3068 3068 3067
3085 3086 3085 3081 3080 3078 3077 3078 3078 3077 3078 3078 3077 3076 3076 3076 3076 3074 3070 3069 3070 3068 3066 3066 3061 3056 3060 3064 3064 3064 3065 3066 3067 3067 3067 3068 3069 3069 3070 3069 3068 3068 3069 3069 3070 3071 3072 3073 3074 3074 3075 3074 3073 3071 3072 3073 3073 3072 3073 3073 3072 3072 3072 3071 3071 3071 3071 3070 3070 3070 3070 3070 3070 3069 3069 3069 3068 3068 3067 3066 3066 3065 3064 3063 3062 3062
3082 3084 3083 3079 3076 3075 3074 3074 3074 3074 3075 3074 3073 3074 3074 3073 3073 3073 3071 3070 3070 3067 3066 3064 3058 3054 3057 3062 3063 3063 3063 3064 3065 3065 3065 3065 3066 3067 3067 3067 3067 3066 3066 3066 3067 3068 3068 3069 3070 3072 3072 3070 3068 3068 3069 3069 3069 3069 3069 3069 3069 3069 3069 3068 3068 3068 3067 3067 3067 3067 3067 3066 3066 3066 3065 3065 3065 3064 3063 3062 3061 3060 3059 3058 3057 3056
3081 3083 3082 3078 3074 3071 3070 3069 3069 3070 3071 3070 3070 3071 3070 3070 3071 3071 3070 3069 3067 3064 3064 3062 3056 3053 3056 3059 3060 3061 3061 3061 3061 3062 3062 3062 3063 3064 3064 3064 3064 3064 3064 3063 3064 3064 3065 3066 3066 3068 3068 3066 3066 3066 3064 3064 3065 3065 3066 3066 3066 3066 3066 3065 3065 3065 3064 3063 3063 3063 3063 3063 3063 3062 3062 3061 3061 3060 3059 3058 3057 3056 3055 3054 3053 3052
3081 3081 3081 3078 3074 3070 3067 3066 3066 3067 3069 3068 3068 3069 3068 3069 3069 3069 3069 3068 3062 3059 3060 3059 3055 3053 3054 3055 3057 3057 3058 3058 3058 3058 3059 3059 3059 3060 3061 3061 3061 3061 3061 3060 3060 3061 3061 3062 3062 3064 3064 3064 3064 3064 3060 3059 3061 3062 3062 3063 3062 3063 3063 3062 3062 3061 3061 3060 3059 3060 3060 3059 3059 3059 3058 3058 3057 3056 3055 3054 3053 3052 3051 3049 3048 3047
3079 3078 3078 3077 3073 3069 3066 3065 3066 3068 3068 3067 3067 3067 3067 3067 3067 3067 3066 3063 3059 3056 3055 3055 3055 3053 3052 3052 3053 3053 3055 3056 3055 3055 3055 3055 3054 3054 3054 3054 3055 3057 3057 3056 3056 3057 3057 3058 3058 3059 3060 3060 3061 3061 3057 3055 3057 3058 3058 3059 3059 3059 3059 3059 3059 3058 3058 3057 3056 3056 3056 3055 3055 3055 3054 3054 3053 3052 3051 3050 3049 3048 3046 3045 3043 3042
3077 3075 3074 3074 3071 3067 3065 3065 3066 3068 3067 3066 3066 3064 3063 3063 3063 3063 3061 3058 3058 3056 3051 3050 3053 3051 3049 3048 3048 3048 3050 3051 3051 3051 3051 3051 3051 3050 3049 3049 3048 3049 3052 3053 3052 3052 3053 3054 3054 3054 3055 3056 3056 3055 3053 3053 3053 3053 3054 3055 3055 3055 3055 3055 3055 3055 3054 3053 3053 3052 3052 3052 3051 3051 3050 3049 3048 3047 3047 3046 3044 3043 3041 3040 3038 3037
3074 3071 3071 3071 3068 3064 3063 3063 3064 3065 3065 3064 3063 3061 3059 3059 3058 3058 3057 3056 3057 3054 3049 3048 3048 3046 3045 3044 3042 3042 3044 3045 3045 3046 3047 3047 3047 3046 3046 3047 3045 3044 3046 3047 3048 3049 3049 3050 3050 3050 3050 3051 3051 3050 3050 3050 3048 3048 3049 3051 3051 3051 3051 3051 3051 3051 3050 3050 3049 3049 3048 3048 3047 3047 3046 3045 3044 3043 3042 3041 3039 3038 3036 3034 3033 3031
3071 3068 3068 3068 3065 3061 3060 3060 3061 3062 3061 3060 3059 3056 3053 3053 3054 3054 3053 3053 3053 3050 3048 3047 3044 3041 3040 3040 3038 3038 3039 3040 3040 3040 3040 3041 3041 3041 3042 3042 3042 3042 3041 3041 3042 3045 3046 3046 3046 3046 3047 3047 3046 3046 3046 3046 3044 3044 3045 3046 3046 3047 3047 3047 3047 3047 3046 3046 3045 3045 3045 3044 3043 3042 3041 3040 3039 3038 3037 3035 3034 3032 3030 3029 3027 3025
3069 3066 3066 3066 3063 3057 3056 3058 3059 3058 3057 3056 3052 3048 3047 3049 3050 3049 3048 3048 3047 3045 3043 3044 3041 3037 3035 3036 3035 3034 3034 3035 3035 3034 3034 3035 3036 3036 3037 3037 3038 3038 3038 3037 3037 3039 3042 3042 3041 3042 3042 3041 3041 3042 3042 3041 3041 3040 3041 3042 3042 3043 3043 3043 3043 3043 3043 3042 3041 3041 3041 3040 3039 3038 3036 3035 3034 3033 3031 3029 3028 3026 3024 3023 3021 3019
3066 3064 3063 3064 3060 3052 3052 3056 3055 3054 3054 3051 3043 3040 3043 3045 3044 3043 3043 3043 3042 3040 3039 3039 3036 3032 3031 3033 3032 3031 3030 3030 3030 3029 3029 3029 3030 3030 3031 3031 3031 3031 3033 3034 3035 3035 3035 3035 3036 3038 3037 3036 3038 3039 3037 3037 3037 3037 3036 3038 3039 3039 3039 3039 3039 3039 3039 3038 3038 3037 3037 3036 3035 3033 3032 3030 3029 3027 3026 3024 3022 3020 3018 3017 3015 3013
3064 3062 3061 3061 3057 3049 3049 3052 3052 3052 3050 3040 3032 3035 3040 3040 3039 3038 3038 3037 3037 3036 3035 3032 3030 3028 3029 3029 3029 3027 3026 3025 3025 3026 3025 3024 3023 3023 3024 3025 3025 3025 3026 3028 3029 3030 3030 3031 3033 3033 3032 3033 3034 3034 3033 3033 3034 3033 3033 3034 3035 3035 3035 3035 3035 3035 3034 3034 3034 3034 3033 3032 3031 3029 3027 3026 3024 3023 3020 3018 3016 3014 3012 3011 3009 3008
3060 3059 3058 3058 3054 3047 3045 3049 3050 3049 3040 3028 3028 3035 3037 3035 3035 3034 3032 3032 3032 3031 3030 3027 3026 3026 3026 3025 3025 3024 3022 3020 3020 3020 3019 3018 3017 3016 3016 3017 3018 3019 3020 3021 3023 3025 3027 3028 3028 3027 3027 3029 3030 3030 3030 3029 3030 3030 3030 3031 3031 3031 3031 3031 3031 3031 3030 3030 3030 3030 3029 3028 3027 3025 3023 3021 3020 3018 3016 3013 3011 3009 3007 3005 3004 3002
3056 3056 3054 3054 3050 3045 3043 3046 3045 3038 3029 3025 3029 3033 3032 3031 3031 3029 3027 3028 3027 3027 3026 3024 3023 3023 3022 3021 3021 3018 3015 3013 3013 3012 3012 3012 3012 3011 3009 3008 3009 3012 3013 3014 3016 3019 3022 3024 3023 3021 3023 3025 3026 3026 3027 3027 3026 3027 3027 3027 3028 3028 3028 3027 3027 3026 3026 3026 3026 3026 3025 3024 3022 3021 3019 3017 3015 3013 3011 3008 3006 3004 3002 3000 2998 2997
3052 3052 3051 3049 3047 3043 3041 3040 3035 3028 3025 3027 3028 3028 3028 3028 3026 3024 3023 3023 3023 3023 3022 3020 3019 3019 3018 3016 3014 3011 3009 3008 3007 3006 3007 3007 3007 3007 3005 3003 3004 3006 3007 3008 3011 3014 3016 3016 3016 3017 3019 3021 3022 3023 3024 3024 3024 3024 3024 3024 3024 3024 3024 3024 3023 3022 3021 3022 3023 3022 3021 3020 3018 3017 3015 3013 3011 3009 3006 3003 3001 2999 2997 2995 2993 2991
3048 3047 3046 3044 3042 3040 3037 3033 3029 3026 3024 3024 3023 3023 3024 3023 3021 3021 3019 3017 3019 3019 3017 3016 3015 3014 3013 3011 3009 3007 3005 3004 3001 3000 3002 3003 3003 3002 3001 3000 3001 3002 3002 3004 3007 3008 3009 3010 3012 3014 3016 3017 3018 3019 3020 3020 3021 3021 3021 3020 3020 3021 3020 3020 3020 3019 3018 3018 3019 3018 3017 3016 3015 3013 3011 3009 3007 3005 3002 2999 2997 2995 2992 2990 2988 2986
3043 3041 3041 3039 3037 3036 3034 3029 3027 3024 3020 3020 3021 3020 3019 3018 3018 3017 3015 3014 3014 3014 3012 3011 3010 3009 3008 3006 3005 3004 3003 3000 2997 2996 2997 2998 2997 2996 2995 2996 2997 2998 3000 3000 3000 3001 3004 3007 3009 3010 3012 3014 3015 3016 3016 3016 3017 3018 3018 3017 3017 3017 3016 3016 3016 3015 3015 3016 3015 3014 3014 3013 3011 3010 3008 3005 3003 3001 2998 2995 2992 2990 2988 2985 2983 2981
3038 3037 3037 3036 3033 3032 3030 3026 3023 3020 3016 3018 3020 3017 3016 3016 3015 3015 3014 3011 3010 3009 3008 3006 3006 3006 3005 3003 3002 3001 3000 2997 2993 2993 2993 2992 2991 2990 2989 2990 2993 2995 2995 2994 2995 2998 3001 3004 3006 3007 3009 3011 3011 3012 3013 3013 3013 3014 3014 3014 3014 3014 3013 3013 3011 3012 3013 3012 3012 3011 3011 3010 3008 3006 3004 3002 2999 2996 2993 2990 2988 2986 2983 2981 2978 2976
3033 3033 3033 3031 3028 3028 3027 3022 3019 3016 3014 3016 3018 3015 3014 3014 3013 3014 3013 3008 3006 3006 3005 3003 3003 3003 3001 3000 2999 2998 2997 2994 2990 2989 2989 2988 2987 2986 2985 2986 2988 2989 2990 2991 2992 2995 2997 3000 3003 3004 3005 3006 3008 3009 3010 3010 3010 3010 3010 3010 3010 3010 3010 3009 3008 3009 3010 3009 3008 3008 3007 3006 3004 3002 3000 2998 2995 2991 2988 2986 2983 2981 2978 2976 2973 2971
3029 3029 3028 3026 3024 3024 3022 3018 3014 3012 3012 3014 3013 3011 3011 3012 3012 3011 3009 3006 3004 3004 3002 3001 3000 2999 2998 2997 2995 2994 2993 2991 2988 2985 2984 2983 2984 2984 2982 2983 2984 2985 2986 2988 2989 2991 2994 2997 2999 3000 3001 3003 3004 3006 3007 3007 3006 3007 3007 3007 3007 3007 3006 3005 3006 3007 3006 3006 3006 3005 3004 3002 3000 2998 2996 2993 2990 2987 2984 2981 2979 2976 2974 2971 2969 2966
3026 3025 3023 3022 3020 3019 3017 3014 3011 3009 3009 3010 3009 3008 3008 3009 3007 3005 3004 3003 3002 3000 2999 2998 2997 2996 2995 2994 2992 2990 2989 2987 2984 2983 2981 2980 2981 2981 2980 2981 2981 2981 2982 2983 2985 2989 2992 2994 2995 2997 2998 3000 3001 3003 3003 3003 3003 3004 3004 3004 3004 3004 3002 3002 3004 3004 3003 3003 3003 3002 3001 2999 2997 2995 2992 2989 2985 2982 2980 2977 2975 2972 2969 2966 2964 2961
3023 3022 3019 3017 3017 3016 3014 3011 3009 3007 3006 3006 3006 3007 3007 3005 3003 3001 3001 3000 2999 2997 2996 2995 2993 2992 2991 2989 2988 2986 2984 2983 2981 2979 2978 2977 2977 2978 2978 2977 2977 2977 2979 2981 2984 2988 2990 2991 2992 2994 2996 2997 2998 2999 3000 3000 3000 3001 3001 3001 3001 3000 2999 3000 3001 3001 3001 3001 3000 2999 2998 2996 2993 2991 2987 2984 2982 2979 2976 2974 2971 2968 2965 2962 2959 2956
3019 3018 3015 3013 3013 3012 3009 3007 3006 3005 3004 3004 3005 3005 3004 3002 3001 2999 2997 2996 2996 2995 2993 2991 2990 2989 2987 2985 2984 2983 2980 2979 2977 2976 2976 2974 2973 2974 2975 2974 2974 2976 2979 2981 2983 2985 2988 2989 2990 2991 2992 2994 2995 2995 2996 2997 2998 2998 2998 2998 2998 2996 2996 2997 2999 2999 2999 2999 2997 2996 2995 2992 2990 2987 2984 2981 2978 2975 2972 2970 2967 2964 2961 2957 2954 2950
3014 3014 3012 3010 3009 3007 3005 3003 3003 3003 3003 3004 3003 3002 3001 2999 2997 2996 2994 2992 2992 2991 2990 2988 2986 2985 2984 2983 2981 2979 2977 2976 2975 2974 2973 2972 2971 2971 2972 2973 2974 2976 2978 2980 2981 2984 2986 2987 2987 2988 2989 2991 2992 2992 2993 2994 2995 2995 2996 2996 2994 2992 2993 2995 2996 2997 2997 2996 2995 2994 2992 2990 2987 2984 2981 2978 2975 2972 2969 2966 2963 2960 2957 2953 2949 2945
3011 3011 3010 3006 3005 3003 3001 2999 3001 3001 3001 3001 3000 2999 2998 2994 2992 2992 2991 2990 2989 2988 2986 2985 2983 2981 2980 2979 2978 2976 2974 2973 2972 2971 2972 2972 2972 2971 2973 2974 2975 2976 2978 2979 2981 2983 2984 2984 2985 2986 2987 2987 2989 2990 2990 2991 2993 2993 2994 2994 2991 2990 2991 2993 2994 2995 2995 2994 2993 2992 2990 2987 2984 2981 2979 2976 2972 2969 2965 2962 2959 2956 2952 2949 2945 2940
3008 3007 3005 3003 3002 3000 2997 2996 2998 2999 2997 2997 2997 2996 2994 2991 2989 2989 2988 2987 2986 2985 2983 2981 2979 2977 2976 2976 2974 2973 2971 2970 2969 2969 2970 2971 2972 2972 2974 2975 2975 2976 2977 2978 2979 2981 2982 2982 2983 2984 2984 2984 2986 2987 2987 2989 2991 2992 2991 2990 2989 2989 2990 2992 2992 2993 2993 2993 2992 2990 2987 2985 2982 2979 2976 2973 2970 2966 2962 2959 2955 2951 2948 2944 2940 2936
3004 3002 3000 3000 2999 2997 2995 2994 2994 2994 2993 2994 2995 2993 2990 2988 2986 2986 2986 2984 2983 2982 2980 2978 2976 2974 2973 2972 2971 2969 2967 2967 2967 2967 2968 2969 2970 2971 2974 2975 2975 2975 2975 2976 2978 2979 2979 2980 2981 2982 2981 2981 2982 2984 2984 2986 2990 2991 2988 2987 2988 2988 2989 2990 2991 2991 2991 2991 2990 2988 2985 2982 2979 2977 2974 2971 2967 2964 2960 2956 2953 2948 2944 2940 2936 2932
3001 2998 2997 2997 2995 2993 2992 2992 2992 2991 2990 2991 2991 2988 2985 2983 2983 2983 2982 2982 2981 2979 2977 2976 2974 2971 2970 2969 2967 2965 2964 2964 2965 2966 2966 2967 2969 2971 2973 2974 2974 2974 2973 2974 2976 2976 2977 2978 2979 2980 2980 2979 2980 2981 2982 2984 2987 2989 2987 2986 2987 2987 2987 2989 2990 2990 2990 2990 2988 2985 2983 2980 2977 2974 2972 2969 2965 2961 2957 2954 2950 2947 2942 2938 2933 2929
2998 2995 2994 2994 2992 2989 2989 2989 2989 2988 2987 2987 2987 2984 2981 2980 2980 2980 2980 2979 2978 2976 2974 2973 2972 2970 2968 2965 2963 2961 2961 2961 2963 2964 2965 2966 2968 2970 2972 2972 2972 2973 2973 2973 2973 2974 2975 2975 2976 2977 2978 2977 2977 2979 2981 2982 2985 2987 2986 2986 2986 2986 2986 2988 2989 2989 2989 2989 2986 2983 2981 2978 2976 2973 2970 2967 2963 2960 2956 2951 2948 2944 2940 2936 2931 2927
2994 2992 2991 2991 2988 2986 2986 2986 2986 2985 2984 2983 2983 2981 2979 2978 2978 2977 2977 2977 2975 2974 2972 2970 2969 2968 2966 2963 2960 2958 2958 2960 2961 2963 2964 2965 2967 2969 2970 2971 2971 2972 2972 2972 2972 2974 2973 2972 2973 2975 2976 2977 2977 2978 2980 2981 2984 2985 2985 2984 2985 2985 2987 2988 2989 2989 2988 2987 2985 2982 2979 2977 2974 2971 2968 2965 2962 2958 2954 2950 2946 2943 2939 2935 2930 2925